Flag for Austria Weather past 2 weeks in Neusiedl am See, Burgenland, Austria

Now
76 °F

Mild.


Feels Like: 78 °F
Forecast: 66 / 75 °F
Wind: 2 mph from Northwest

Location: Eisenstadt

Current Time: Sep 1, 2015 at 10:36:48 PM

Latest Report: Sep 1, 2015 at 9:00 PM


Visibility: N/A

Pressure: 29.71 "Hg

Humidity: 58%

Dew point: 60 °F

Location of Neusiedl am SeeLocation

Historic Weather in Neusiedl am See — Graph

°F

Neusiedl am See temperature yesterday

Maximum temperature yesterday: 94 °F (at 3:00 PM)
Minimum temperature yesterday: 66 °F (at 6:00 AM)
Average temperature yesterday: 79 °F

Past Weeks' High & Low Weather Summary

 TemperatureHumidityPressure
High94 °F (Aug 30, 4:00 PM)95% (Aug 20, 9:00 AM)30.22 "Hg (Aug 20, 9:00 AM)
Low53 °F (Aug 26, 7:00 AM)19% (Aug 31, 3:00 PM)29.68 "Hg (Sep 1, 7:00 PM)
Average70 °F66%30.01 "Hg
* Reported Aug 17 9:00 PM — Sep 1 9:00 PM, Neusiedl am See, Weather by CustomWeather, © 2015

Note: Actual official high and low records may vary slightly from our data, if they occured in-between our weather recording intervals... More about our weather records

Advertising

Neusiedl am See weather history for previous 24 hours

 ConditionsComfort  
Time TempWeatherWind HumidityBarometerVisibility
9:00 PM
Tue, Sep 1
76 °FMild.2 mph58%29.71 "HgN/A
8:00 PM80 °FClear.2 mph53%29.69 "Hg16 mi
7:00 PM87 °FPassing clouds.5 mph41%29.68 "Hg16 mi
6:00 PM89 °FHot.3 mph35%29.69 "HgN/A
5:00 PM91 °FSunny.5 mph34%29.70 "Hg16 mi
4:00 PM90 °FHot.3 mph33%29.72 "HgN/A
3:00 PM90 °FHot.5 mph31%29.74 "HgN/A
2:00 PM89 °FSunny.5 mph34%29.76 "Hg16 mi
1:00 PM86 °FWarm.2 mph45%29.78 "HgN/A
12:00 PM82 °FWarm.2 mph52%29.80 "HgN/A
11:00 AM80 °FSunny.2 mph57%29.81 "Hg16 mi
10:00 AM77 °FWarm.2 mph59%29.81 "HgN/A
9:00 AM73 °FMild.1 mph67%29.82 "HgN/A
8:00 AM70 °FSunny.No wind71%29.83 "Hg16 mi
7:00 AM64 °FSunny.2 mph81%29.84 "Hg16 mi
6:00 AM64 °FClear.1 mph82%29.84 "Hg9 mi
5:00 AM65 °FMild.1 mph80%29.83 "HgN/A
4:00 AM65 °FMild.2 mph80%29.82 "HgN/A
3:00 AM66 °FMild.2 mph78%29.82 "HgN/A
2:00 AM67 °FClear.3 mph76%29.82 "Hg9 mi
1:00 AM68 °FMild.5 mph73%29.83 "HgN/A
12:00 AM69 °FMild.3 mph70%29.84 "HgN/A
11:00 PM
Mon, Aug 31
71 °FClear.3 mph67%29.84 "Hg12 mi
10:00 PM73 °FMild.3 mph59%29.84 "HgN/A
Weather by CustomWeather, © 2015

See weather overviewHow to use our weather pages